Vertical_Velocity
-0 -3 -6 -3 19 -19 -0 -8 0 3 7 2 -12 13 2 3 10 6 -1 -0 2 2 -1 -3 -3 -2 -0 1 -1 0 -1 2 -1 -3 -0 0 1 2 -0 -1 -1 1 1 0 0 0 1 1 11
-0 -3 -3 3 -9 9 5 8 10 4 -1 9 -8 -3 -6 9 -4 -1 1 -2 -2 1 1 -1 -3 -3 -1 0 1 1 1 -0 0 -1 -1 1 -1 0 2 -0 -1 3 1 0 -0 1 -0 -0 1
-3 -1 7 -2 -8 4 1 -3 -1 -7 -13 2 24 -2 6 -2 0 1 0 2 -1 -1 0 -1 -2 -3 -1 1 1 1 2 0 -0 0 -1 -0 1 0 1 0 1 0 -1 1 2 0 0 -1 -2
-2 -1 -5 13 12 -10 -4 -3 -8 5 -18 -7 -4 -5 0 0 1 6 1 -0 -2 -0 -6 1 -1 -2 -2 -1 0 0 2 1 -2 -1 1 -0 1 -0 -3 3 -1 -0 -0 -1 1 0 0 1 1
-8 7 18 16 -0 -8 7 -7 6 -8 6 2 0 22 -5 -1 4 -1 -1 0 -2 -5 3 1 1 -1 -3 0 -0 0 1 2 1 -2 1 2 -0 0 0 -2 -0 2 1 1 -0 1 4 2 1
31 -8 -7 9 -3 -4 12 -8 -10 -1 -4 -10 6 -3 -2 -1 -0 2 2 -0 -2 -13 2 1 -0 -0 0 -3 0 2 2 1 2 -1 -1 0 1 -0 0 1 0 0 1 -1 -0 2 3 3 2
16 -3 32 -6 -2 -3 -12 -1 8 -1 6 11 -9 12 -2 -0 -3 -2 1 3 -2 1 -1 -1 1 0 -1 -0 -2 -0 -0 3 1 -1 -1 -0 1 1 0 -0 -0 -0 0 0 1 0 3 2 1
-4 -1 13 -1 -1 17 -19 18 -17 23 -12 -6 -4 19 -3 0 -4 -3 -1 -0 4 -3 -1 -3 -3 -0 1 -1 -1 -2 0 1 -1 0 0 -3 -2 6 -0 -2 -1 -0 3 -1 -1 -1 -0 1 -1
8 28 26 6 6 1 -17 3 -8 -18 -5 9 -4 11 -4 -2 -0 -3 -1 -8 3 2 1 -1 -0 -0 1 -0 0 -2 -3 -2 1 1 -1 0 -1 -2 -1 0 -1 1 1 1 -0 -1 -0 -1 -0
-4 -66 51 -4 18 18 -21 20 -7 41 -6 -7 -4 -3 -1 -2 -0 -2 -1 0 1 -0 0 -2 -2 0 0 0 1 -0 -4 -3 -1 0 -1 6 0 2 0 -1 -3 -1 1 0 -0 0 0 -1 -3
1 -38 -5 -7 1 -3 14 8 -1 16 29 -6 -5 -2 -0 -0 1 1 -0 -3 0 -1 -3 -1 -1 -1 -1 -2 0 -1 1 -4 -3 -1 -1 -4 7 -2 -1 0 -1 0 -1 2 1 -1 0 -4 1
-2 3 -9 -2 1 -5 38 -4 24 -9 -13 8 -6 -3 -2 -0 -0 -1 -1 -2 3 -3 -1 -2 -0 1 -0 -4 -2 -4 -1 -3 -8 -2 0 -0 3 -1 1 0 -2 -3 -3 -1 5 3 3 -8 2
-12 8 -2 -2 -7 -1 -11 -9 19 -15 -8 2 -6 -4 -5 -2 -2 -5 -5 -2 -3 -5 -3 -0 -2 1 -0 1 -2 -3 -6 -2 -0 -2 -1 -1 2 -2 4 0 -4 -1 -4 -3 -0 3 2 -3 6
8 -5 -3 5 9 16 -10 4 -38 6 -6 -3 -4 -4 -4 -3 -2 -1 -1 -0 1 -1 -0 -3 -1 -1 -2 -1 -0 -4 -5 8 1 7 -3 -0 -1 -0 -1 3 0 1 3 1 -2 3 3 2 0
8 -6 -6 -6 8 36 -22 10 -4 -1 -4 -2 2 -0 -4 -5 -3 -2 -2 -2 -4 -3 2 2 -0 -1 -1 -1 -0 -2 -5 -3 -4 -2 -5 -3 -2 -2 1 1 2 0 2 0 -1 -2 2 2 5
-9 -8 32 58 -5 15 -10 -88 30 22 -13 1 3 -1 2 -1 -4 -2 -1 -3 -4 -4 -5 -4 2 -0 -2 -3 -2 -2 -2 -3 -3 -2 -7 -3 -3 -2 6 5 3 4 2 -6 1 0 3 0 1
-2 4 33 7 -2 18 -17 -5 40 11 4 0 -2 0 1 0 -2 -3 -3 -2 -3 -1 -3 -2 -3 -1 -4 -1 -2 -2 -3 -2 -4 -5 -4 -5 -4 -3 5 5 6 -5 -2 -2 6 1 5 6 6
15 18 -22 36 -5 -1 -8 -1 5 28 -4 4 -4 1 -2 -2 0 -1 -1 -1 -2 -1 -2 -1 -4 -2 -1 -1 -1 -3 -2 -3 -3 -0 -3 -5 -3 -2 -1 -0 3 4 -0 8 6 9 -2 2 6
1 9 8 4 14 -11 -10 -4 -2 -1 32 -13 -0 -14 -2 -1 -0 -1 -2 -1 -1 -3 -1 -1 0 -1 -3 -2 -1 -1 -2 -1 -3 -1 -4 1 -1 -2 1 -0 -1 -1 4 9 2 12 -1 1 15
16 -3 -11 -6 -15 2 -3 -9 5 9 14 7 11 -0 -7 -0 -2 -1 -2 -2 -0 -2 -1 -2 -3 -2 -2 -1 -0 -4 1 0 -0 0 -1 1 2 1 1 1 1 0 1 -7 1 -0 1 4 11
-1 3 0 17 1 -18 -8 -11 -0 7 -7 -13 -10 -5 6 -4 -1 -2 -5 -2 -2 -2 -1 -1 2 -0 -0 -0 -2 1 -2 -0 1 1 0 0 -1 -2 1 1 3 -0 2 1 2 -2 -2 7 4
3 -9 -12 3 -9 7 8 -2 -67 11 -3 3 11 -6 7 -8 -1 -3 -1 -3 -1 1 -2 -1 -0 -0 1 0 -2 -0 2 1 2 -2 0 -3 -5 -6 -1 -3 -1 -1 -1 -0 -0 2 -0 -2 4
-19 4 27 -16 4 4 -1 9 12 5 19 10 -10 -6 -1 -1 -8 -4 -7 -2 -1 -4 -2 -2 -5 -3 -1 -1 1 0 1 0 -3 -4 -3 1 -2 -2 -3 1 -3 -1 3 0 2 -2 -0 -1 -0
0 2 16 -2 -8 14 -11 3 -11 -16 5 -5 -4 -10 -1 -2 6 -5 1 0 -1 -0 -0 -1 -1 1 -1 -1 1 -1 8 8 2 -2 1 2 -3 0 -5 -5 -8 -1 -1 -2 1 2 2 2 5
11 20 0 13 15 -14 15 6 36 -18 7 -11 14 -1 -5 -4 -3 3 -0 -1 -0 0 2 0 0 2 -1 -1 0 1 -0 3 9 -2 -0 3 3 -1 -6 -9 -8 -5 -3 -1 -5 -2 4 -1 0
-16 6 -1 -4 -0 -14 24 -4 -27 14 4 -14 -4 8 -4 -3 -7 -3 -3 1 0 2 1 0 -2 -1 1 0 2 2 2 -1 -0 -2 3 0 3 -1 -5 1 4 3 -0 -2 0 4 0 2 -0
-13 0 -18 13 2 18 -29 18 -18 16 -15 -13 11 9 -2 6 22 4 -4 -1 0 -1 -0 2 1 0 2 3 1 1 1 -1 -2 2 1 -1 -1 -1 -3 -4 -4 2 -1 -2 2 1 0 -0 -0
-2 15 17 -7 8 -1 -4 -6 -2 15 -5 25 11 19 -3 15 -0 4 -1 -1 0 -1 -0 1 1 -0 1 1 -1 -2 2 2 -1 1 4 -1 -0 1 -4 -6 -4 -2 -2 1 -2 -1 8 2 0
2 -9 8 14 7 3 -1 -21 -5 -16 -12 -5 5 -7 20 9 -3 0 2 2 -1 0 1 -0 -1 -1 -1 0 -1 -1 -2 2 -0 1 -0 -1 -4 -1 -3 -0 3 -1 -1 2 0 0 1 1 2
1 -5 0 11 -17 -10 3 13 -2 1 -7 21 10 15 -11 -9 3 -1 -3 -0 -1 -0 2 2 -1 -3 -3 -2 -2 -1 -2 -2 -0 -1 0 -1 -0 0 1 -1 -1 1 -2 1 0 1 1 3 4
Height
3161 3161 3160 3162 3167 3167 3166 3167 3166 3166 3167 3168 3168 3170 3170 3169 3165 3173 3171 3172 3173 3175 3177 3179 3180 3181 3182 3183 3185 3187 3188 3189 3190 3191 3193 3193 3193 3193 3193 3191 3191 3193 3195 3195 3196 3196 3197 3198 3199
3161 3162 3164 3164 3168 3165 3167 3166 3167 3168 3169 3169 3169 3170 3171 3171 3170 3171 3172 3172 3175 3177 3178 3180 3182 3183 3184 3185 3187 3188 3190 3191 3192 3193 3194 3194 3195 3195 3193 3191 3192 3194 3196 3197 3197 3198 3199 3200 3201
3163 3164 3166 3169 3169 3168 3169 3169 3170 3170 3170 3171 3171 3172 3172 3172 3172 3173 3174 3174 3176 3177 3179 3181 3183 3185 3186 3187 3188 3190 3191 3192 3193 3194 3195 3196 3196 3196 3195 3195 3195 3196 3198 3198 3198 3200 3201 3202 3203
3164 3168 3169 3167 3170 3171 3171 3172 3172 3171 3172 3172 3172 3172 3170 3171 3172 3175 3172 3176 3179 3178 3180 3182 3184 3186 3187 3189 3191 3192 3193 3194 3195 3195 3196 3197 3197 3197 3197 3198 3198 3199 3199 3199 3200 3201 3202 3203 3204
3166 3169 3170 3169 3172 3174 3174 3174 3174 3173 3173 3173 3173 3172 3169 3169 3171 3172 3173 3180 3182 3182 3182 3184 3185 3187 3189 3191 3192 3193 3194 3195 3196 3197 3198 3198 3198 3199 3199 3199 3200 3200 3201 3201 3201 3202 3203 3203 3204
3174 3167 3169 3169 3173 3174 3174 3175 3175 3175 3175 3172 3173 3171 3168 3167 3169 3172 3176 3182 3185 3181 3184 3185 3186 3188 3190 3192 3193 3194 3195 3196 3197 3198 3198 3198 3199 3200 3200 3200 3201 3202 3202 3201 3202 3203 3203 3204 3205
3174 3173 3172 3171 3172 3175 3176 3176 3175 3176 3175 3175 3174 3174 3170 3169 3170 3175 3179 3183 3186 3186 3183 3186 3187 3189 3190 3192 3194 3195 3195 3197 3198 3198 3198 3198 3199 3199 3200 3201 3202 3202 3203 3203 3203 3204 3204 3205 3206
3172 3173 3171 3171 3173 3175 3177 3177 3178 3177 3177 3175 3175 3174 3171 3171 3172 3177 3182 3184 3185 3183 3184 3186 3187 3189 3191 3193 3195 3196 3197 3197 3198 3198 3199 3199 3199 3198 3200 3200 3202 3202 3204 3204 3205 3205 3205 3206 3207
3173 3172 3169 3173 3174 3175 3177 3175 3178 3178 3177 3178 3175 3176 3171 3171 3173 3178 3181 3179 3181 3183 3184 3186 3188 3190 3192 3194 3195 3197 3197 3198 3198 3199 3199 3199 3199 3199 3199 3200 3201 3203 3204 3205 3205 3206 3206 3206 3207
3175 3173 3170 3174 3176 3176 3177 3178 3178 3175 3178 3177 3175 3173 3172 3172 3174 3175 3175 3178 3181 3183 3185 3187 3188 3190 3192 3193 3195 3196 3197 3198 3198 3198 3198 3199 3198 3200 3199 3199 3201 3203 3204 3205 3205 3206 3206 3207 3207
3178 3176 3176 3178 3178 3178 3178 3179 3179 3178 3176 3178 3177 3174 3173 3173 3175 3179 3178 3178 3181 3184 3188 3187 3189 3190 3191 3192 3193 3195 3197 3198 3198 3198 3198 3199 3199 3199 3199 3199 3200 3202 3203 3204 3205 3205 3206 3206 3207
3180 3180 3180 3180 3181 3180 3176 3178 3179 3179 3179 3180 3176 3175 3175 3175 3176 3181 3184 3185 3183 3185 3187 3188 3188 3190 3191 3192 3193 3194 3196 3197 3197 3198 3199 3199 3201 3199 3199 3199 3199 3201 3203 3203 3205 3205 3205 3204 3206
3180 3179 3180 3181 3181 3180 3180 3180 3179 3180 3179 3180 3177 3176 3176 3175 3176 3179 3183 3186 3186 3187 3185 3186 3187 3190 3191 3192 3193 3195 3196 3197 3197 3198 3198 3199 3200 3199 3199 3200 3200 3202 3202 3203 3203 3204 3204 3203 3205
3179 3180 3180 3180 3180 3180 3179 3178 3178 3177 3178 3177 3176 3176 3177 3177 3176 3177 3178 3181 3183 3185 3185 3185 3186 3188 3190 3191 3192 3194 3195 3198 3199 3199 3197 3198 3198 3199 3199 3200 3200 3202 3203 3202 3202 3202 3202 3202 3203
3179 3179 3178 3177 3178 3178 3178 3177 3175 3175 3177 3177 3176 3175 3176 3177 3177 3177 3177 3178 3180 3182 3182 3183 3184 3185 3187 3189 3190 3191 3194 3197 3197 3197 3195 3197 3197 3197 3198 3200 3200 3200 3201 3202 3201 3201 3201 3201 3201
3179 3177 3173 3175 3177 3176 3177 3181 3174 3169 3174 3176 3177 3174 3175 3175 3176 3177 3176 3177 3177 3179 3179 3178 3180 3183 3184 3186 3187 3189 3191 3194 3195 3196 3194 3195 3196 3196 3197 3198 3198 3199 3199 3200 3200 3200 3200 3199 3199
3174 3170 3172 3174 3176 3176 3176 3174 3174 3172 3173 3175 3175 3174 3174 3173 3175 3175 3175 3175 3175 3176 3176 3177 3178 3179 3181 3183 3185 3186 3187 3189 3191 3192 3192 3192 3194 3195 3196 3196 3197 3197 3198 3199 3198 3199 3198 3198 3198
3167 3166 3169 3170 3175 3175 3174 3173 3172 3171 3172 3174 3173 3173 3171 3170 3172 3173 3173 3173 3174 3174 3175 3175 3176 3177 3178 3180 3182 3183 3184 3185 3188 3189 3190 3190 3193 3194 3195 3195 3195 3196 3197 3197 3196 3194 3196 3197 3198
3169 3167 3167 3169 3171 3174 3173 3171 3170 3169 3169 3170 3172 3169 3169 3167 3168 3169 3170 3170 3171 3172 3172 3173 3174 3175 3175 3177 3179 3180 3181 3182 3184 3185 3186 3188 3189 3191 3193 3193 3194 3194 3195 3194 3192 3196 3194 3195 3193
3167 3169 3169 3169 3170 3172 3171 3169 3167 3166 3166 3167 3167 3168 3167 3166 3165 3167 3168 3168 3168 3169 3170 3170 3172 3173 3174 3175 3177 3178 3179 3180 3181 3182 3183 3186 3187 3188 3189 3191 3192 3192 3193 3192 3193 3193 3194 3193 3188
3165 3167 3167 3166 3168 3168 3166 3163 3162 3161 3162 3164 3164 3164 3164 3163 3163 3164 3165 3166 3166 3167 3168 3168 3169 3170 3171 3173 3174 3175 3177 3178 3178 3180 3181 3182 3183 3184 3185 3186 3187 3188 3190 3191 3192 3191 3191 3190 3188
3163 3165 3165 3165 3168 3161 3160 3156 3160 3158 3159 3158 3159 3160 3162 3162 3162 3163 3164 3164 3165 3165 3166 3166 3166 3167 3168 3170 3170 3172 3173 3175 3176 3177 3178 3178 3179 3180 3180 3181 3182 3183 3184 3187 3189 3188 3188 3188 3188
3160 3161 3161 3165 3165 3161 3155 3154 3146 3154 3155 3155 3157 3158 3159 3161 3163 3162 3163 3163 3164 3164 3164 3164 3164 3164 3165 3165 3166 3167 3169 3171 3171 3173 3174 3175 3174 3176 3176 3176 3176 3176 3177 3180 3184 3186 3185 3185 3185
3159 3160 3160 3163 3163 3156 3150 3150 3148 3149 3154 3155 3155 3156 3158 3160 3162 3162 3162 3163 3162 3162 3162 3161 3161 3162 3162 3162 3162 3163 3165 3167 3167 3167 3170 3170 3169 3170 3171 3171 3172 3172 3173 3174 3177 3181 3182 3182 3183
3156 3157 3156 3156 3152 3145 3142 3144 3142 3151 3150 3153 3155 3156 3157 3159 3160 3162 3162 3162 3161 3161 3161 3159 3159 3159 3159 3158 3158 3159 3161 3162 3163 3163 3164 3166 3165 3163 3166 3166 3167 3167 3168 3169 3172 3176 3178 3179 3178
3150 3152 3150 3148 3140 3135 3137 3141 3143 3147 3148 3151 3153 3154 3155 3157 3158 3160 3160 3160 3160 3160 3160 3159 3157 3156 3156 3155 3154 3154 3155 3157 3158 3158 3158 3160 3160 3160 3161 3160 3160 3162 3163 3164 3169 3171 3173 3175 3174
3145 3146 3149 3144 3137 3131 3142 3139 3140 3144 3148 3149 3150 3151 3153 3155 3156 3158 3158 3157 3157 3158 3158 3157 3155 3153 3152 3151 3150 3149 3150 3151 3152 3152 3153 3154 3155 3155 3156 3158 3158 3159 3160 3163 3165 3167 3169 3169 3170
3139 3143 3145 3143 3136 3133 3128 3135 3135 3139 3145 3146 3148 3149 3150 3152 3154 3155 3155 3154 3155 3155 3155 3154 3152 3150 3148 3147 3146 3146 3146 3146 3147 3148 3148 3150 3151 3150 3153 3154 3154 3156 3158 3159 3162 3164 3164 3164 3165
3136 3136 3136 3137 3136 3129 3128 3128 3129 3137 3143 3145 3146 3148 3148 3150 3151 3152 3152 3152 3152 3152 3152 3151 3150 3147 3145 3144 3143 3143 3143 3143 3143 3144 3145 3146 3147 3148 3150 3150 3151 3154 3155 3156 3158 3159 3159 3159 3159
3129 3131 3133 3132 3132 3129 3125 3126 3128 3134 3139 3142 3144 3146 3145 3148 3149 3149 3150 3150 3149 3149 3149 3148 3147 3145 3143 3142 3141 3141 3141 3141 3141 3142 3143 3144 3145 3147 3148 3148 3149 3151 3153 3154 3155 3155 3155 3155 3153